Regional Weather Roundup
Issued by NWS

Home | Current Version | Previous Version | Graphics & Text | Print | Product List | Glossary On
Versions: 1 2 3 4 5 6 7 8 9 10 11 12 13 14 15 16 17 18 19 20 21 22 23 24 25 26 27 28 29 30 31 32 33 34 35 36 37 38 39 40 41 42 43 44 45 46 47 48 49 50
000
ASUS43 KOAX 200710
RWRNE

WEATHER ROUNDUP FOR NEBRASKA
NATIONAL WEATHER SERVICE OMAHA NE
200 AM CDT WED AUG 20 2014

NOTES: SATELLITE DATA IS BEING USED TO AUGMENT CLOUD COVER ABOVE
       12000 FEET.
       "FAIR" INDICATES FEW OR NO CLOUDS BELOW 12,000 FEET WITH NO
       SIGNIFICANT WEATHER AND/OR OBSTRUCTIONS TO VISIBILITY.

  * THESE STATIONS DO NOT REPORT WEATHER SUCH AS RAIN...SNOW OR FOG.

NEZ001>004-019>022-054>056-200800-
NEBRASKA PANHANDLE

CITY           SKY/WX    TMP DP  RH WIND       PRES   REMARKS
SCOTTSBLUFF    MOCLDY    69  56  62 SE7       29.83F
ALLIANCE       CLOUDY    66  57  72 CALM      29.83S
CHADRON        CLOUDY    75  52  44 S12       29.76F
KIMBALL        PTCLDY    61  55  79 SW5       29.87F
SIDNEY         MOCLDY    63  59  87 W6        29.85F
$$

NEZ057>060-069>072-079>082-200800-
SOUTHWEST NEBRASKA

CITY           SKY/WX    TMP DP  RH WIND       PRES   REMARKS
NORTH PLATTE   LGT RAIN  70  62  76 N8        29.78F
IMPERIAL       CLOUDY    68  62  81 N5        29.84R
LEXINGTON      LGT RAIN  74  66  77 CALM      29.80F
MCCOOK         CLOUDY    73  63  70 E5        29.80F
OGALLALA       CLOUDY    65  63  90 SE8       29.79S
$$

NEZ005>010-023>029-035>040-094-200800-
NORTH CENTRAL NEBRASKA

CITY           SKY/WX    TMP DP  RH WIND       PRES   REMARKS
VALENTINE      MOCLDY    75  65  70 SW3       29.77F
AINSWORTH      LGT RAIN  71  68  90 SE13      29.78F
BROKEN BOW     CLOUDY    73  68  84 SW3       29.80F
O`NEILL        CLOUDY    72  67  84 SE12      29.78F
ORD            CLOUDY    73  68  84 S6        29.77F
THEDFORD       CLOUDY    70  61  74 S9        29.83S
$$

NEZ041-046>049-061>064-073>077-083>087-200800-
SOUTH CENTRAL NEBRASKA

CITY           SKY/WX    TMP DP  RH WIND       PRES   REMARKS
GRAND ISLAND   CLOUDY    75  67  76 SE8       29.78F
AURORA         CLOUDY    72  71  97 SE5       29.79S
HASTINGS       CLOUDY    75  64  68 SE9       29.79F
HEBRON         MOCLDY    75  65  71 S8        29.79S
HOLDREGE       CLOUDY    75  64  70 CALM      29.81F
KEARNEY *      CLOUDY    73  66  78 S6        29.81R
YORK           CLOUDY    73 N/A N/A SE7       29.80S
$$

NEZ011>018-030>034-042>045-200800-
NORTHEAST NEBRASKA

CITY           SKY/WX    TMP DP  RH WIND       PRES   REMARKS
NORFOLK        CLOUDY    71  65  81 SE7       29.78F
ALBION         CLOUDY    70  65  82 SE7       29.78F
BLAIR          MOCLDY    72  65  79 E5        29.81F
COLUMBUS *     CLOUDY    70  66  88 E5        29.80S
FREMONT        CLOUDY    74  66  75 E7        29.80F
TEKAMAH        MOCLDY    70  66  87 CALM      29.79F
WAYNE          MOCLDY    69  66  88 SE6       29.79F
$$

NEZ050>053-065>068-078-088>093-200800-
SOUTHEAST NEBRASKA

CITY           SKY/WX    TMP DP  RH WIND       PRES   REMARKS
LINCOLN        MOCLDY    79  71  76 SE8       29.79F
OMAHA EPPLEY   MOCLDY    74  65  73 SE6       29.81S
BEATRICE       MOCLDY    76  69  77 S9        29.80S
FALLS CITY     PTCLDY    73  71  93 SE5       29.80S
NEBRASKA CITY  PTCLDY    73  70  91 SE3       29.81S
PLATTSMOUTH    MOCLDY    74  69  83 SE6       29.81F
$$

NEZ044-045-051>053-067-200800-
OMAHA AREA

CITY           SKY/WX    TMP DP  RH WIND       PRES   REMARKS
OMAHA EPPLEY   MOCLDY    74  65  73 SE6       29.81S
BLAIR          MOCLDY    72  65  79 E5        29.81F
FREMONT        CLOUDY    74  66  75 E7        29.80F
MILLARD        MOCLDY    76  69  79 SE5       29.79F
OFFUTT AFB     MOCLDY    71  71  99 E6        29.80F
PLATTSMOUTH    MOCLDY    74  69  83 SE6       29.81F
WAHOO          FAIR      72  67  87 E5        29.80S
$$


USA.gov is the U.S. government's official web portal to all federal, state and local government web resources and services.